Regional Weather Roundup
Issued by NWS

Home | Current Version | Previous Version | Text Only | Print | Product List | Glossary On
Versions: 1 2 3 4 5 6 7 8 9 10 11 12 13 14 15 16 17 18 19 20 21 22 23 24 25 26 27 28 29 30 31 32 33 34 35 36 37 38 39 40 41 42 43 44 45 46 47 48 49 50
000
ASUS44 KBMX 291410
RWRAL

ALABAMA REGIONAL WEATHER ROUNDUP
NATIONAL WEATHER SERVICE BIRMINGHAM AL
900 AM CDT MON MAY 29 2017

NOTE: "FAIR" INDICATES FEW OR NO CLOUDS BELOW 12,000 FEET
WITH NO SIGNIFICANT WEATHER AND/OR OBSTRUCTIONS TO VISIBILITY.

THE REMARK "TC" DENOTES TEMPERATURE IN DEGREES CELSIUS.

ALZ001>011-014-016>018-020-291500-
NORTH ALABAMA

CITY           SKY/WX    TMP DP  RH WIND       PRES   REMARKS
MUSCLE SHOALS  CLOUDY    71  68  90 E3        30.02R
HUNTSVILLE     LGT RAIN  71  69  93 CALM      30.02R
DECATUR        LGT RAIN  71  68  90 CALM      30.02R
HALEYVILLE     FAIR      70  67  90 S5        30.06R
GADSDEN        CLOUDY    74  68  81 S3        30.04R
$$

ALZ012-013-022-023-030>036-040>044-291500-
WEST CENTRAL ALABAMA

CITY           SKY/WX    TMP DP  RH WIND       PRES   REMARKS
TUSCALOOSA     CLOUDY    72  68  87 SW5       30.03R
$$

ALZ015-024>027-033>036-040>044-291500-
CENTRAL ALABAMA

CITY           SKY/WX    TMP DP  RH WIND       PRES   REMARKS
BIRMINGHAM     CLOUDY    74  67  78 S5        30.05R
MONTGOMERY     PTSUNNY   82  69  64 SE7       30.03R
SHELBY CO ARPT CLOUDY    73  69  87 S5        30.04R
MAXWELL AFB    PTSUNNY   80  71  74 SE5       30.03R
GREENVILLE     FAIR      76  69  79 S5        30.01F
$$

ALZ019-021-028-029-037-038-045>048-291500-
EAST CENTRAL ALABAMA

CITY           SKY/WX    TMP DP  RH WIND       PRES   REMARKS
ANNISTON       CLOUDY    76  67  73 VRB3      30.04R
ALEXANDER CITY PTSUNNY   74  68  79 CALM      30.06R
AUBURN         CLOUDY    76  70  82 SW7       30.07
$$

ALZ051>064-291500-
SOUTHWEST ALABAMA

CITY           SKY/WX    TMP DP  RH WIND       PRES   REMARKS
MOBILE         LGT RAIN  74  72  93 SE3       30.06R FOG
BROOKLEY FIELD LGT RAIN  76  74  93 VRB7      30.08R
EVERGREEN      CLOUDY    74  68  81 S9        30.03R
$$

ALZ049-050-065>069-291500-
SOUTHEAST ALABAMA

CITY           SKY/WX    TMP DP  RH WIND       PRES   REMARKS
DOTHAN         CLOUDY    75  73  93 SW7       30.09S
OZARK          CLOUDY    73  71  94 W3        30.06R
TROY           CLOUDY    73  72  96 S7        30.06S
EUFAULA        FAIR      79  72  79 VRB7      30.05R
$$



USA.gov is the U.S. government's official web portal to all federal, state and local government web resources and services.